Location: Houston
(29.7630°N, 95.3630°W)
Time: 07:55:34
(UTC-05:00)

Amateur Radio Satellites - All Passes

Search period start: 26 May 2017 07:25
Search period end: 27 May 2017 07:25
Location: Houston, 29.7630°N, 95.3630°W

Satellite Date Start Highest point End Downlink Frequencies (MHz)
Time Altitude Azimuth
XW-2B 26 May 07:27:34 07:31:25 89° 93° (E) 07:35:14 145.730 - 145.750
DOVE 4 26 May 07:34:02 07:37:57 39° 285° (WNW) 07:41:59 437.250
XW-2F 26 May 07:40:37 07:44:24 60° 284° (WNW) 07:48:09 145.980 - 146.000
XW-2C 26 May 07:41:16 07:45:02 56° 284° (WNW) 07:48:47 145.795 - 145.815
NUDT-PHONESAT 26 May 07:41:20 07:45:05 77° 283° (WNW) 07:48:50 437.300
BEESAT 2 26 May 07:45:40 07:47:22 12° 307° (NW) 07:49:05 435.950
KAITUO 1B 26 May 07:49:08 07:52:52 57° 284° (WNW) 07:56:34 145.475/437.950
JUGNU 26 May 07:51:31 07:56:16 25° 191° (S) 08:01:02 437.505
NO-84 26 May 07:55:49 07:59:24 25° 122° (ESE) 08:03:01 435.350 FM
SO-50 26 May 07:56:18 08:00:09 27° 57° (ENE) 08:04:01 436.795
CUTE 1.7 + AOD 2 26 May 08:06:43 08:10:23 28° 97° (E) 08:14:01 437.475
STRAND 1 26 May 08:09:20 08:14:25 88° 255° (WSW) 08:19:32 437.568
HO-68 26 May 08:17:29 08:24:20 46° 101° (E) 08:31:09 435.675
XW-2A 26 May 08:19:53 08:23:01 33° 99° (E) 08:26:09 145.665 - 145.685
LilacSat-2 26 May 08:19:54 08:22:25 17° 289° (WNW) 08:24:54 437.200
AAUSAT CUBESAT 2 26 May 08:24:54 08:26:05 11° 94° (E) 08:27:15 437.432
SRMSAT 26 May 08:29:15 08:34:30 32° 180° (S) 08:39:44 437.500
M-CUBED/EXP-1 PRIME 26 May 08:31:26 08:35:27 37° 71° (ENE) 08:39:14 437.505
CUBEBUG 2 26 May 08:38:54 08:43:06 34° 98° (E) 08:47:22 437.445
CUTE-I 26 May 08:41:14 08:45:23 23° 291° (WNW) 08:49:32 437.470
UWE-3 26 May 08:50:34 08:54:27 27° 97° (E) 08:58:23 435.000/436.395/437.385
SEEDS 26 May 08:56:28 09:00:40 77° 101° (ESE) 09:04:50 437.485
Oscar 11 26 May 09:25:25 09:28:56 24° 97° (E) 09:32:26 .
NO-84 26 May 09:32:59 09:36:54 31° 315° (NW) 09:40:46 435.350 FM
SO-50 26 May 09:36:55 09:40:25 22° 250° (WSW) 09:43:56 436.795
JUGNU 26 May 09:42:19 09:44:45 13° 199° (SSW) 09:47:10 437.505
CUTE 1.7 + AOD 2 26 May 09:43:10 09:45:56 17° 290° (WNW) 09:48:42 437.475
UNISAT 6 26 May 09:45:39 09:48:09 15° 69° (ENE) 09:50:39 437.425
AO-73 26 May 09:50:41 09:55:14 68° 101° (E) 09:59:46 145.935
AAUSAT CUBESAT 2 26 May 09:57:47 10:01:38 38° 285° (WNW) 10:05:26 437.432
PRISM 26 May 09:59:43 10:03:22 31° 73° (ENE) 10:07:01 437.425
ZACube-1 26 May 10:04:25 10:08:59 73° 282° (WNW) 10:13:32 437.345
HO-68 26 May 10:05:52 10:11:40 27° 294° (WNW) 10:17:27 435.675
M-CUBED/EXP-1 PRIME 26 May 10:07:33 10:09:50 14° 259° (W) 10:12:02 437.505
CUBEBUG 2 26 May 10:16:19 10:19:24 18° 290° (WNW) 10:22:32 437.445
SRMSAT 26 May 10:18:23 10:23:13 26° 190° (S) 10:28:04 437.500
DELFI C3 26 May 10:20:47 10:24:04 25° 97° (E) 10:27:20 145.870
UWE-3 26 May 10:27:09 10:30:42 22° 289° (WNW) 10:34:16 435.000/436.395/437.385
EO-88 26 May 10:30:22 10:33:17 22° 97° (E) 10:36:11 145.990 - 145.960
RS-15 26 May 10:33:06 10:42:16 24° 42° (NE) 10:51:05 29.354- 29.394
FO-29 26 May 10:34:25 10:39:34 62° 75° (ENE) 10:44:42 435.910
TIGRISAT 26 May 10:48:35 10:52:49 89° 79° (ENE) 10:57:08 435.000
Oscar 11 26 May 11:01:37 11:04:53 21° 289° (WNW) 11:08:07 .
QB50P2 26 May 11:19:12 11:20:07 11° 68° (ENE) 11:21:01 145.880/145.840
UNISAT 6 26 May 11:20:44 11:24:31 32° 262° (W) 11:28:23 437.425
PRISM 26 May 11:36:22 11:38:39 14° 265° (W) 11:40:55 437.425
AIST 2D 26 May 11:40:53 11:44:08 37° 75° (ENE) 11:47:24 435.315
EO-79 26 May 11:53:37 11:57:08 27° 72° (ENE) 12:00:41 145.935-145.965
DELFI C3 26 May 11:56:13 11:58:35 16° 289° (WNW) 12:00:56 145.870
EO-88 26 May 12:04:30 12:06:44 15° 289° (WNW) 12:08:56 145.990 - 145.960
SRMSAT 26 May 12:08:54 12:11:51 14° 198° (SSW) 12:14:47 437.500
NANOSAT C BR1 26 May 12:38:20 12:42:29 85° 260° (W) 12:46:41 145.865
POLYITAN 1 26 May 12:42:37 12:46:45 66° 259° (W) 12:50:55 437.675
RS-15 26 May 12:44:20 12:56:28 90° 64° (ENE) 13:07:55 29.354- 29.394
YUBILEINY 26 May 12:46:40 12:55:09 48° 80° (E) 13:03:33 435.215
LO-87 26 May 12:47:41 12:50:57 35° 285° (WNW) 12:54:13 145.935 - 145.965
ESTCUBE 1 26 May 12:48:36 12:53:07 88° 100° (E) 12:57:35 437.505/2401.250
DUCHIFAT 1 26 May 12:49:15 12:53:22 69° 259° (WSW) 12:57:31 145.980
QB50P2 26 May 12:51:26 12:55:26 45° 260° (W) 12:59:28 145.880/145.840
BUGSAT 1 26 May 13:08:48 13:12:40 50° 75° (ENE) 13:16:33 437.445
Gurwin Techsat 1B 26 May 13:19:37 13:22:15 14° 66° (ENE) 13:24:52 435.225
EO-79 26 May 13:30:08 13:32:50 17° 264° (W) 13:35:34 145.935-145.965
AO-85 26 May 13:35:24 13:37:01 12° 54° (NE) 13:38:38 145.980
Oscar 19 26 May 13:41:26 13:46:17 42° 73° (ENE) 13:51:10 437.125/150
SPROUT 26 May 13:41:47 13:46:05 88° 104° (ESE) 13:50:21 437.525
VELOX 1 26 May 13:45:36 13:49:59 87° 284° (WNW) 13:54:22 145.980
50 SAT 26 May 14:03:11 14:06:35 86° 102° (ESE) 14:09:57 437.505
UKube-1 26 May 14:14:56 14:18:59 40° 100° (E) 14:23:00 .
O/OREOS (USA 219) 26 May 14:19:34 14:23:26 28° 66° (ENE) 14:27:15 437.305
DX 1 26 May 14:21:55 14:26:15 80° 101° (E) 14:30:34 434.975-435.025
YUBILEINY 26 May 14:44:15 14:51:25 29° 275° (W) 14:58:37 435.215
ITAMSAT 1 26 May 14:45:57 14:47:46 12° 65° (ENE) 14:49:36 435.822/435.867
BEESAT 3 26 May 14:49:55 14:53:05 22° 56° (ENE) 14:56:13 437.485
Gurwin Techsat 1B 26 May 14:56:27 15:01:38 56° 259° (W) 15:06:52 435.225
RS-15 26 May 15:00:32 15:07:08 17° 261° (W) 15:13:36 29.354- 29.394
AO-7 26 May 15:08:24 15:15:36 34° 64° (ENE) 15:22:48 .
AO-85 26 May 15:13:31 15:17:32 48° 246° (WSW) 15:21:48 145.980
BEESAT 26 May 15:20:23 15:23:24 17° 95° (E) 15:26:25 436.000
Oscar 19 26 May 15:22:21 15:25:41 17° 265° (W) 15:29:01 437.125/150
UKube-1 26 May 15:52:43 15:54:34 13° 292° (WNW) 15:56:27 .
O/OREOS (USA 219) 26 May 15:59:26 16:02:34 19° 259° (W) 16:05:40 437.305
BEESAT 2 26 May 16:06:10 16:10:10 60° 62° (ENE) 16:14:07 435.950
NO-84 26 May 16:13:49 16:15:14 12° 37° (NE) 16:16:37 435.350 FM
ITAMSAT 1 26 May 16:21:32 16:26:37 63° 258° (WSW) 16:31:46 435.822/435.867
ITUPSAT 1 26 May 16:22:50 16:27:40 88° 102° (ESE) 16:32:29 437.325
BEESAT 3 26 May 16:27:29 16:30:30 21° 250° (WSW) 16:33:29 437.485
MOZHAYETS 4 26 May 16:39:43 16:44:22 77° 102° (ESE) 16:48:59
BEESAT 26 May 16:56:50 17:01:12 37° 287° (WNW) 17:05:35 436.000
AO-7 26 May 17:00:20 17:08:04 43° 259° (WSW) 17:15:50 .
CUBESAT XI-V 26 May 17:25:42 17:30:00 37° 99° (E) 17:34:14 437.345
KKS-1 26 May 17:33:46 17:37:52 36° 99° (E) 17:41:59 437.445
NO-84 26 May 17:49:44 17:53:05 48° 235° (SW) 17:56:10 435.350 FM
XW-2D 26 May 17:56:24 17:58:28 14° 71° (ENE) 18:00:32 145.860 - 145.880
XW-2B 26 May 18:03:51 18:06:22 17° 72° (ENE) 18:08:55 145.730 - 145.750
STARS 26 May 18:04:54 18:08:54 33° 99° (E) 18:12:52 437.465
NUDT-PHONESAT 26 May 18:15:31 18:18:05 18° 72° (ENE) 18:20:41 437.300
XW-2F 26 May 18:15:52 18:18:56 24° 73° (ENE) 18:22:01 145.980 - 146.000
XW-2C 26 May 18:16:46 18:19:57 26° 73° (ENE) 18:23:09 145.795 - 145.815
CUTE-I 26 May 18:16:55 18:21:29 30° 71° (ENE) 18:26:02 437.470
KAITUO 1B 26 May 18:23:28 18:26:32 24° 73° (ENE) 18:29:36 145.475/437.950
DOVE 4 26 May 18:32:44 18:37:31 86° 259° (WSW) 18:42:00 437.250
HO-68 26 May 18:41:40 18:46:15 18° 62° (ENE) 18:50:51 435.675
PCSat 26 May 18:52:21 18:57:08 33° 108° (ESE) 19:01:55 145.827
LilacSat-2 26 May 18:54:10 18:57:59 83° 259° (WSW) 19:01:50 437.200
CUBESAT XI-V 26 May 19:04:15 19:07:00 16° 291° (WNW) 19:09:43 437.345
KKS-1 26 May 19:11:36 19:14:04 15° 291° (WNW) 19:16:32 437.445
ISS 26 May 19:16:26 19:17:57 13° 125° (SE) 19:19:29 437.550
XW-2D 26 May 19:29:09 19:32:22 26° 263° (W) 19:35:37 145.860 - 145.880
CUBEBUG 2 26 May 19:33:23 19:35:01 12° 69° (ENE) 19:36:41 437.445
XW-2B 26 May 19:37:23 19:40:21 22° 264° (W) 19:43:20 145.730 - 145.750
STARS 26 May 19:42:16 19:44:54 16° 291° (WNW) 19:47:33 437.465
SEEDS 26 May 19:42:28 19:45:52 23° 72° (ENE) 19:49:15 437.485
NUDT-PHONESAT 26 May 19:49:07 19:51:49 19° 264° (W) 19:54:32 437.300
XW-2F 26 May 19:50:44 19:52:59 15° 265° (W) 19:55:15 145.980 - 146.000
XW-2C 26 May 19:52:04 19:54:06 14° 265° (W) 19:56:09 145.795 - 145.815
CUTE-I 26 May 19:57:08 20:01:25 25° 263° (W) 20:05:43 437.470
KAITUO 1B 26 May 19:58:17 20:00:27 15° 265° (W) 20:02:39 145.475/437.950
XW-2A 26 May 20:17:21 20:20:40 73° 258° (WSW) 20:24:01 145.665 - 145.685
Tancredo 1 26 May 20:18:56 20:21:54 46° 316° (NW) 20:24:52 437.200
STRAND 1 26 May 20:25:57 20:30:59 53° 101° (E) 20:35:59 437.568
HO-68 26 May 20:26:08 20:33:14 68° 257° (WSW) 20:40:25 435.675
CUTE 1.7 + AOD 2 26 May 20:28:03 20:32:12 52° 260° (W) 20:36:24 437.475
PCSat 26 May 20:36:02 20:40:28 25° 302° (WNW) 20:44:56 145.827
AO-73 26 May 20:40:50 20:44:09 23° 72° (ENE) 20:47:31 145.935
AAUSAT CUBESAT 2 26 May 20:41:08 20:45:13 56° 76° (ENE) 20:49:19 437.432
ISS 26 May 20:51:05 20:54:09 36° 317° (NW) 20:57:14 437.550
ZACube-1 26 May 20:54:15 20:58:07 38° 74° (ENE) 21:02:04 437.345
CUBEBUG 2 26 May 21:07:24 21:11:14 37° 262° (W) 21:15:08 437.445
UWE-3 26 May 21:17:12 21:21:14 52° 260° (W) 21:25:22 435.000/436.395/437.385
SEEDS 26 May 21:18:15 21:21:24 20° 264° (W) 21:24:35 437.485
Oscar 11 26 May 21:49:00 21:53:15 58° 260° (W) 21:57:33 .
M-CUBED/EXP-1 PRIME 26 May 21:49:53 21:53:07 67° 105° (ESE) 21:56:22 437.505
FO-29 26 May 21:50:45 21:53:44 13° 94° (E) 21:56:48 435.910
SO-50 26 May 22:04:23 22:08:35 35° 112° (ESE) 22:12:44 436.795
STRAND 1 26 May 22:07:02 22:09:38 14° 294° (WNW) 22:12:15 437.568
AO-73 26 May 22:17:10 22:20:15 20° 265° (W) 22:23:24 145.935
ZACube-1 26 May 22:32:59 22:34:31 12° 267° (W) 22:36:04 437.345
DELFI C3 26 May 22:33:46 22:37:43 65° 259° (W) 22:41:42 145.870
EO-88 26 May 22:34:40 22:38:18 87° 78° (ENE) 22:41:59 145.990 - 145.960
TIGRISAT 26 May 22:45:58 22:50:04 30° 98° (E) 22:54:10 435.000
UNISAT 6 26 May 23:17:17 23:21:56 81° 102° (ESE) 23:26:38 437.425
LO-87 26 May 23:17:46 23:20:52 29° 74° (ENE) 23:23:59 145.935 - 145.965
PRISM 26 May 23:21:28 23:25:30 65° 283° (WNW) 23:29:29 437.425
FO-29 26 May 23:32:13 23:38:56 84° 285° (WNW) 23:46:27 435.910
ESTCUBE 1 26 May 23:42:01 23:46:11 37° 74° (ENE) 23:50:22 437.505/2401.250
SO-50 26 May 23:45:49 23:49:04 19° 306° (NW) 23:52:18 436.795
TIGRISAT 27 May 00:23:10 00:26:28 20° 289° (WNW) 00:29:48 435.000
NANOSAT C BR1 27 May 00:29:01 00:32:28 24° 97° (E) 00:35:53 145.865
SPROUT 27 May 00:29:22 00:33:01 29° 73° (ENE) 00:36:41 437.525
50 SAT 27 May 00:31:45 00:32:52 11° 70° (ENE) 00:34:00 437.505
POLYITAN 1 27 May 00:33:31 00:37:19 30° 98° (E) 00:41:06 437.675
VELOX 1 27 May 00:36:47 00:40:51 37° 73° (ENE) 00:44:55 145.980
DUCHIFAT 1 27 May 00:39:22 00:43:02 28° 98° (E) 00:46:42 145.980
QB50P2 27 May 00:41:57 00:46:02 43° 99° (E) 00:50:07 145.880/145.840
AIST 2D 27 May 00:44:28 00:48:02 69° 281° (W) 00:51:32 435.315
RS-15 27 May 00:50:10 00:58:34 23° 101° (E) 01:07:05 29.354- 29.394
LO-87 27 May 00:53:54 00:54:19 10° 266° (W) 00:54:45 145.935 - 145.965
BUGSAT 1 27 May 00:58:09 00:59:49 12° 95° (E) 01:01:29 437.445
UKube-1 27 May 01:04:35 01:07:16 16° 69° (ENE) 01:09:57 .
DX 1 27 May 01:11:38 01:15:27 31° 72° (ENE) 01:19:16 434.975-435.025
EO-79 27 May 01:18:52 01:23:06 67° 284° (WNW) 01:27:20 145.935-145.965
ESTCUBE 1 27 May 01:20:34 01:23:02 14° 265° (W) 01:25:32 437.505/2401.250
FO-29 27 May 01:21:19 01:23:14 11° 296° (WNW) 01:25:12 435.910
YUBILEINY 27 May 01:39:28 01:48:03 67° 92° (E) 01:56:42 435.215
Oscar 19 27 May 01:59:37 02:03:44 24° 97° (E) 02:07:49 437.125/150
50 SAT 27 May 02:02:28 02:05:25 26° 262° (W) 02:08:23 437.505
NANOSAT C BR1 27 May 02:04:50 02:07:58 20° 289° (WNW) 02:11:05 145.865
SPROUT 27 May 02:06:16 02:08:53 16° 265° (W) 02:11:32 437.525
POLYITAN 1 27 May 02:10:08 02:12:47 16° 290° (WNW) 02:15:27 437.675
JUGNU 27 May 02:11:52 02:15:30 17° 163° (SSE) 02:19:10 437.505
VELOX 1 27 May 02:15:05 02:17:21 14° 265° (W) 02:19:37 145.980
DUCHIFAT 1 27 May 02:15:41 02:18:26 17° 290° (WNW) 02:21:12 145.980
QB50P2 27 May 02:19:56 02:21:22 12° 292° (WNW) 02:22:49 145.880/145.840
BUGSAT 1 27 May 02:31:23 02:35:13 37° 286° (WNW) 02:39:05 437.445
UKube-1 27 May 02:39:10 02:42:59 31° 261° (W) 02:46:50 .
DX 1 27 May 02:48:52 02:51:36 16° 264° (W) 02:54:21 434.975-435.025
RS-15 27 May 02:57:40 03:09:38 79° 297° (WNW) 03:22:05 29.354- 29.394
Gurwin Techsat 1B 27 May 03:18:39 03:23:59 85° 284° (WNW) 03:29:17 435.225
AO-7 27 May 03:19:01 03:22:58 14° 94° (E) 03:26:54 .
ITUPSAT 1 27 May 03:23:27 03:28:02 50° 74° (ENE) 03:32:40 437.325
ISS 27 May 03:24:35 03:26:17 13° 35° (NE) 03:27:58 437.550
MOZHAYETS 4 27 May 03:35:37 03:39:45 35° 73° (ENE) 03:43:56
Oscar 19 27 May 03:38:33 03:42:57 29° 289° (WNW) 03:47:19 437.125/150
YUBILEINY 27 May 03:39:25 03:45:23 20° 288° (WNW) 03:51:26 435.215
AO-85 27 May 03:43:55 03:46:23 15° 110° (ESE) 03:48:46 145.980
BEESAT 27 May 03:56:35 04:01:17 65° 258° (WSW) 04:06:01 436.000
JUGNU 27 May 03:59:00 04:03:59 28° 172° (S) 04:09:00 437.505
CUBESAT XI-V 27 May 04:23:42 04:27:01 19° 70° (ENE) 04:30:20 437.345
Tancredo 1 27 May 04:23:55 04:26:57 70° 227° (SW) 04:29:58 437.200
O/OREOS (USA 219) 27 May 04:24:56 04:29:31 80° 289° (WNW) 04:34:07 437.305
KKS-1 27 May 04:27:01 04:29:49 17° 69° (ENE) 04:32:37 437.445
BEESAT 3 27 May 04:34:45 04:37:04 15° 109° (ESE) 04:39:23 437.485
ITAMSAT 1 27 May 04:40:19 04:45:33 77° 103° (ESE) 04:50:46 435.822/435.867
SRMSAT 27 May 04:40:43 04:44:09 16° 163° (SSE) 04:47:35 437.500
STARS 27 May 04:57:03 04:59:24 14° 69° (ENE) 05:01:46 437.465
ISS 27 May 04:59:48 05:02:56 44° 229° (SW) 05:06:03 437.550
ITUPSAT 1 27 May 05:04:22 05:06:03 12° 266° (W) 05:07:44 437.325
AO-7 27 May 05:07:58 05:16:22 87° 287° (WNW) 05:24:45 .
MOZHAYETS 4 27 May 05:14:07 05:16:56 16° 265° (W) 05:19:46
RS-15 27 May 05:15:51 05:24:22 21° 320° (NW) 05:33:02 29.354- 29.394
AO-85 27 May 05:22:38 05:26:30 33° 300° (WNW) 05:30:11 145.980
PCSat 27 May 05:28:40 05:34:07 73° 66° (ENE) 05:39:30 145.827
JUGNU 27 May 05:47:21 05:52:34 31° 183° (S) 05:57:48 437.505
BEESAT 2 27 May 05:51:34 05:55:19 45° 113° (ESE) 05:59:07 435.950
CUBESAT XI-V 27 May 05:59:56 06:04:06 31° 262° (W) 06:08:17 437.345
KKS-1 27 May 06:02:07 06:06:03 32° 261° (W) 06:10:01 437.445
BEESAT 3 27 May 06:10:52 06:14:20 29° 302° (WNW) 06:17:50 437.485
SRMSAT 27 May 06:27:50 06:32:48 27° 171° (S) 06:37:47 437.500
STARS 27 May 06:31:23 06:35:23 36° 261° (W) 06:39:24 437.465
LilacSat-2 27 May 06:34:23 06:36:53 16° 95° (E) 06:39:22 437.200
DOVE 4 27 May 06:37:26 06:41:22 37° 99° (E) 06:45:25 437.250
CUTE-I 27 May 06:40:25 06:44:15 20° 96° (E) 06:48:04 437.470
AO-7 27 May 07:03:40 07:07:56 15° 303° (WNW) 07:12:12 .
XW-2D 27 May 07:06:56 07:10:39 45° 100° (E) 07:14:18 145.860 - 145.880
XW-2B 27 May 07:14:50 07:18:37 57° 100° (E) 07:22:22 145.730 - 145.750
